EW0608 Weather Reports


time (UTC)temp
F
wind
direction
speed
knots
gust
knots
rain 1hr
in
rain 24hr
in
rain mn
in
humidity
%
barometer
mb
20260831203851 80 171 0.0 0.0 0.00 0.00 0.00 84 1018.5
20260831203343 80 171 0.0 0.0 0.00 0.00 0.00 83 1018.6
20260831203041 80 171 0.0 0.0 0.00 0.00 0.00 82 1017.3
20260831202836 80 171 0.0 0.9 0.00 0.00 0.00 82 1018.6
20260831202349 80 171 0.0 0.9 0.00 0.00 0.00 82 1018.7
20260831201842 80 171 0.0 0.9 0.00 0.00 0.00 83 1018.8
20260831201557 79 171 0.0 0.0 0.00 0.00 0.00 85 1017.5
20260831201355 80 171 0.0 0.9 0.00 0.00 0.00 85 1018.8
20260831200847 80 171 0.0 0.9 0.00 0.00 0.00 83 1018.8
20260831200341 80 171 0.0 1.7 0.00 0.00 0.00 86 1018.9
20260831200051 79 171 0.0 1.7 0.00 0.00 0.00 86 1017.6
20260831195850 80 171 0.0 1.7 0.00 0.00 0.00 86 1018.8
20260831195343 79 171 0.0 0.0 0.00 0.00 0.00 87 1018.8
20260831194855 79 171 0.0 0.0 0.00 0.00 0.00 88 1018.9
20260831194624 78 171 0.0 0.0 0.00 0.00 0.00 88 1017.6
20260831194348 79 171 0.0 0.0 0.00 0.00 0.00 87 1018.9
20260831193900 79 171 0.0 0.0 0.00 0.00 0.00 86 1019.0
20260831193352 79 171 0.0 0.0 0.00 0.00 0.00 86 1019.0
20260831193044 79 171 0.0 0.0 0.00 0.00 0.00 85 1017.7
20260831192943 79 171 0.0 0.0 0.00 0.00 0.00 85 1019.0
20260831192350 80 171 0.0 0.0 0.00 0.00 0.00 83 1019.1
20260831191842 81 171 0.0 0.9 0.00 0.00 0.00 79 1019.1
20260831191556 80 171 0.0 1.7 0.00 0.00 0.00 79 1017.9
20260831190907 81 171 0.0 1.7 0.00 0.00 0.00 78 1019.2
20260831190022 81 171 0.0 0.0 0.00 0.00 0.00 78 1017.9
20260831185921 82 171 0.0 0.0 0.00 0.00 0.00 79 1019.2
20260831185349 81 171 0.0 0.0 0.00 0.00 0.00 81 1019.2
20260831184843 81 171 0.0 0.0 0.00 0.00 0.00 81 1019.3
20260831184532 81 171 0.0 0.0 0.00 0.00 0.00 80 1018.1
20260831184415 81 171 0.0 0.0 0.00 0.00 0.00 81 1019.3
20260831183412 78 171 0.0 0.9 0.00 0.00 0.00 90 1019.4
20260831183004 77 171 0.0 0.9 0.00 0.00 0.00 89 1018.2
20260831182904 78 171 0.0 0.9 0.00 0.00 0.00 89 1019.4
20260831182356 78 171 0.0 0.0 0.00 0.00 0.00 88 1019.5
20260831181849 78 171 0.0 0.0 0.00 0.00 0.00 89 1019.6
20260831181641 77 171 0.0 0.0 0.00 0.00 0.00 89 1018.5
20260831181340 78 171 0.0 0.0 0.00 0.00 0.00 88 1019.8
20260831180854 78 171 0.0 0.0 0.00 0.00 0.00 86 1019.6
20260831180407 78 171 0.0 0.0 0.00 0.00 0.00 87 1019.6
20260831180056 77 171 0.0 0.0 0.00 0.00 0.00 87 1018.4
20260831175855 78 171 0.0 0.0 0.00 0.00 0.00 87 1019.5
20260831175407 78 171 0.0 0.0 0.00 0.00 0.00 87 1019.6
20260831174859 78 171 0.0 0.0 0.00 0.00 0.00 87 1019.6
20260831174510 77 171 0.0 0.0 0.00 0.00 0.00 87 1018.4
20260831174409 78 171 0.0 0.0 0.00 0.00 0.00 87 1019.6
20260831173859 78 171 0.0 0.0 0.00 0.00 0.00 89 1019.5
20260831173350 77 171 0.0 0.0 0.00 0.00 0.00 88 1019.5
20260831173045 77 171 0.0 0.0 0.00 0.00 0.00 87 1018.3
20260831172844 77 171 0.0 0.0 0.00 0.00 0.00 86 1019.5
20260831172337 78 171 0.0 0.0 0.00 0.00 0.00 86 1019.5
20260831171929 78 171 0.0 0.0 0.00 0.00 0.00 85 1019.5
20260831171543 78 171 0.0 0.0 0.00 0.00 0.00 84 1018.3
20260831171337 78 171 0.0 0.0 0.00 0.00 0.00 83 1019.6
20260831170850 78 171 0.0 0.0 0.00 0.00 0.00 83 1019.6
20260831170445 78 171 0.0 0.0 0.00 0.00 0.00 84 1019.7
20260831170013 77 171 0.0 0.0 0.00 0.00 0.00 85 1018.5
20260831165910 78 171 0.0 0.0 0.00 0.00 0.00 84 1019.8
20260831165341 78 171 0.0 0.0 0.00 0.00 0.00 84 1019.8
20260831164854 78 171 0.0 0.0 0.00 0.00 0.00 84 1019.9
20260831164547 77 171 0.0 0.0 0.00 0.00 0.00 82 1018.7
20260831164346 78 171 0.0 0.0 0.00 0.00 0.00 82 1019.9
20260831163838 78 171 0.0 0.0 0.00 0.00 0.00 80 1019.9
20260831163351 79 171 0.0 0.0 0.00 0.00 0.00 79 1019.9
20260831163045 79 171 0.0 0.9 0.00 0.00 0.00 77 1018.7
20260831162844 79 171 0.0 1.7 0.00 0.00 0.00 76 1019.9
20260831162342 79 171 0.9 2.6 0.00 0.00 0.00 74 1020.0
20260831161854 80 118 0.0 1.7 0.00 0.00 0.00 74 1020.1
20260831161555 79 219 0.0 1.7 0.00 0.00 0.00 73 1018.8
20260831161347 79 219 0.0 1.7 0.00 0.00 0.00 73 1020.0
20260831160900 79 223 0.0 0.0 0.00 0.00 0.00 73 1019.8
20260831160351 79 153 0.0 0.0 0.00 0.00 0.00 72 1019.8
20260831160041 79 153 0.0 1.7 0.00 0.00 0.00 72 1018.7
20260831155841 79 153 0.0 1.7 0.00 0.00 0.00 71 1019.9
20260831154838 80 94 0.0 0.9 0.00 0.00 0.00 74 1020.0
20260831154600 79 94 0.0 0.9 0.00 0.00 0.00 75 1018.8
20260831154351 79 94 0.9 0.9 0.00 0.00 0.00 75 1020.1
20260831153844 79 227 0.0 0.0 0.00 0.00 0.00 78 1020.1
20260831153417 78 227 0.0 0.0 0.00 0.00 0.00 78 1020.2
20260831153047 78 227 0.0 0.0 0.00 0.00 0.00 78 1018.9
20260831152847 78 227 0.0 0.0 0.00 0.00 0.00 78 1020.1
20260831152339 78 227 0.0 0.0 0.00 0.00 0.00 78 1020.2
20260831151853 78 227 0.0 0.0 0.00 0.00 0.00 79 1020.2
20260831151558 77 227 0.0 0.0 0.00 0.00 0.00 80 1019.0
20260831150055 76 176 0.0 0.0 0.00 0.00 0.00 83 1019.3
20260831144553 75 176 0.0 0.0 0.00 0.00 0.00 85 1019.3
20260831143049 74 176 0.0 0.0 0.00 0.00 0.00 86 1019.2
20260831141544 73 176 0.0 0.0 0.00 0.00 0.00 85 1019.1
20260831140041 73 175 0.0 0.0 0.00 0.00 0.00 87 1019.0
20260831134537 72 227 0.0 0.0 0.00 0.00 0.00 87 1019.2
20260831133035 71 132 0.0 0.0 0.00 0.00 0.00 89 1019.3
20260831131531 71 132 0.0 0.0 0.00 0.00 0.00 90 1019.3
20260831130029 69 233 0.0 0.0 0.00 0.00 0.00 93 1019.4
20260831124529 67 233 0.0 0.0 0.00 0.00 0.00 94 1019.2
20260831123027 67 233 0.0 0.0 0.00 0.00 0.00 94 1019.1
20260831121527 67 233 0.0 0.0 0.00 0.00 0.00 94 1019.3
20260831120030 67 233 0.0 0.0 0.00 0.00 0.00 94 1019.1
20260831114524 67 233 0.0 0.0 0.00 0.00 0.00 94 1019.2
20260831113023 66 233 0.0 0.0 0.00 0.00 0.00 94 1019.0
20260831111529 66 233 0.0 0.0 0.00 0.00 0.00 94 1018.8
20260831110021 67 233 0.0 0.0 0.00 0.00 0.00 94 1018.9
20260831104530 67 233 0.0 0.0 0.00 0.00 0.00 93 1018.6
20260831103037 67 233 0.0 0.0 0.00 0.00 0.00 94 1018.5
20260831101516 67 233 0.0 0.0 0.00 0.00 0.00 94 1018.6
20260831100024 67 233 0.0 0.0 0.00 0.00 0.00 94 1018.4
20260831094525 67 233 0.0 0.0 0.00 0.00 0.00 93 1018.2
20260831093012 67 233 0.0 0.0 0.00 0.00 0.00 93 1018.1
20260831091511 68 233 0.0 0.0 0.00 0.00 0.00 94 1018.2
20260831090011 68 233 0.0 0.0 0.00 0.00 0.00 94 1018.1
20260831084511 68 233 0.0 0.0 0.00 0.00 0.00 94 1017.8
20260831083019 68 233 0.0 0.0 0.00 0.00 0.00 94 1018.0
20260831081508 68 233 0.0 0.0 0.00 0.00 0.00 93 1017.9
20260831080022 68 233 0.0 0.0 0.00 0.00 0.00 93 1018.0
20260831074507 68 233 0.0 0.0 0.00 0.00 0.00 93 1018.0
20260831073018 68 233 0.0 0.0 0.00 0.00 0.00 93 1018.0
20260831071505 68 233 0.0 0.0 0.00 0.00 0.00 93 1017.7
20260831070004 68 233 0.0 0.0 0.00 0.00 0.00 93 1017.7
20260831064503 68 233 0.0 0.0 0.00 0.00 0.00 93 1017.8
20260831063100 69 233 0.0 0.0 0.00 0.00 0.00 93 1017.9
20260831061559 69 233 0.0 0.0 0.00 0.00 0.00 93 1018.1
20260831060056 69 233 0.0 0.0 0.00 0.00 0.00 93 1018.2
20260831054554 69 233 0.0 0.0 0.00 0.00 0.00 93 1018.2
20260831053054 70 233 0.0 0.0 0.00 0.00 0.00 93 1018.2
20260831051552 70 233 0.0 0.0 0.00 0.00 0.00 93 1018.2
20260831050051 70 233 0.0 0.0 0.00 0.00 0.00 93 1018.2
20260831045850 71 233 0.0 0.0 0.00 0.00 0.00 93 1019.3
20260831045342 71 233 0.0 0.0 0.00 0.00 0.00 93 1019.4
20260831044854 71 233 0.0 0.0 0.00 0.00 0.00 93 1019.4
20260831044550 70 233 0.0 0.0 0.00 0.00 0.00 93 1018.3
20260831044347 71 233 0.0 0.0 0.00 0.00 0.00 93 1019.3
20260831043839 71 233 0.0 0.0 0.00 0.00 0.00 93 1019.4
20260831043411 71 233 0.0 0.0 0.00 0.00 0.00 93 1019.5
20260831043043 70 233 0.0 0.0 0.00 0.00 0.00 93 1018.4
20260831042842 71 233 0.0 0.0 0.00 0.00 0.00 93 1019.5
20260831042355 71 233 0.0 0.0 0.00 0.00 0.00 93 1019.4
20260831041848 71 233 0.0 0.0 0.00 0.00 0.00 93 1019.4
20260831041505 70 233 0.0 0.0 0.00 0.00 0.00 93 1018.3
20260831041401 71 233 0.0 0.0 0.00 0.00 0.00 93 1019.4
20260831040914 71 233 0.0 0.0 0.00 0.00 0.00 93 1019.4
20260831040344 71 233 0.0 0.0 0.00 0.00 0.00 93 1019.4
20260831040039 70 233 0.0 0.0 0.00 0.00 0.00 93 1018.4
20260831035838 71 233 0.0 0.0 0.00 0.00 0.00 93 1019.4
20260831035350 71 233 0.0 0.0 0.00 0.00 0.00 93 1019.4
20260831034843 71 233 0.0 0.0 0.00 0.00 0.00 93 1019.4
20260831034516 71 233 0.0 0.0 0.00 0.00 0.00 93 1018.4
20260831034415 71 233 0.0 0.0 0.00 0.00 0.00 93 1019.6
20260831033847 71 233 0.0 0.0 0.00 0.00 0.00 93 1019.5
20260831033340 71 233 0.0 0.0 0.00 0.00 0.00 93 1019.5
20260831033013 71 233 0.0 0.0 0.00 0.00 0.00 93 1018.4
20260831032913 71 233 0.0 0.0 0.00 0.00 0.00 93 1019.4
20260831032345 71 233 0.0 0.0 0.00 0.00 0.00 93 1019.5
20260831031839 71 233 0.0 0.0 0.00 0.00 0.00 93 1019.5
20260831031601 71 233 0.0 0.0 0.00 0.00 0.00 93 1018.5
20260831031352 71 233 0.0 0.0 0.00 0.00 0.00 93 1019.6
20260831030844 71 233 0.0 0.0 0.00 0.00 0.00 93 1019.6
20260831030357 71 233 0.0 0.0 0.00 0.00 0.00 93 1019.6
20260831030045 71 233 0.0 0.0 0.00 0.00 0.00 93 1018.5
20260831025845 72 233 0.0 0.0 0.00 0.00 0.00 93 1019.6
20260831025339 72 233 0.0 0.0 0.00 0.00 0.00 92 1019.5
20260831024852 72 233 0.0 0.0 0.00 0.00 0.00 92 1019.5
20260831024552 71 233 0.0 0.0 0.00 0.00 0.00 92 1018.5
20260831024345 72 233 0.0 0.0 0.00 0.00 0.00 92 1019.6
20260831023858 72 233 0.0 0.0 0.00 0.00 0.00 92 1019.5
20260831023350 72 233 0.0 0.0 0.00 0.00 0.00 92 1019.5
20260831023022 72 233 0.0 0.0 0.00 0.00 0.00 92 1018.4
20260831022922 72 233 0.0 0.0 0.00 0.00 0.00 92 1019.2
20260831022348 72 233 0.0 0.0 0.00 0.00 0.00 92 1019.5
20260831021841 72 233 0.0 1.7 0.00 0.00 0.00 92 1019.5
20260831021555 72 233 0.0 1.7 0.00 0.00 0.00 92 1018.4
20260831021354 72 233 0.0 1.7 0.00 0.00 0.00 92 1019.5
20260831020846 72 233 0.9 1.7 0.00 0.00 0.00 92 1019.5
20260831020358 72 233 0.0 0.0 0.00 0.00 0.00 92 1019.5
20260831020049 72 233 0.0 0.0 0.00 0.00 0.00 92 1018.4
20260831015848 72 233 0.0 0.0 0.00 0.00 0.00 92 1019.6
20260831015341 72 233 0.0 0.0 0.00 0.00 0.00 92 1019.6
20260831014855 73 233 0.0 0.0 0.00 0.00 0.00 92 1019.6
20260831014508 72 233 0.0 0.0 0.00 0.00 0.00 92 1018.5
20260831014407 72 233 0.0 0.0 0.00 0.00 0.00 92 1019.6
20260831013838 73 233 0.0 0.0 0.00 0.00 0.00 92 1019.6
20260831013411 72 233 0.0 0.0 0.00 0.00 0.00 93 1019.6
20260831013043 72 233 0.0 0.0 0.00 0.00 0.00 93 1018.5
20260831012842 72 233 0.0 0.0 0.00 0.00 0.00 92 1019.5
20260831012414 72 233 0.0 0.0 0.00 0.00 0.00 92 1019.5
20260831011846 73 233 0.0 0.0 0.00 0.00 0.00 92 1019.4
20260831011539 72 233 0.0 0.0 0.00 0.00 0.00 92 1018.3
20260831011337 73 233 0.0 0.0 0.00 0.00 0.00 92 1019.3
20260831010851 73 233 0.0 0.0 0.00 0.00 0.00 92 1019.3
20260831010405 73 233 0.0 0.0 0.00 0.00 0.00 91 1019.3
20260831010101 72 233 0.0 0.0 0.00 0.00 0.00 91 1018.2
20260831005853 73 233 0.0 0.0 0.00 0.00 0.00 91 1019.2
20260831005406 73 233 0.0 0.0 0.00 0.00 0.00 91 1019.1
20260831004838 73 233 0.0 0.9 0.00 0.00 0.00 91 1019.0
20260831004553 73 233 0.0 0.9 0.00 0.00 0.00 91 1017.8
20260831004350 73 233 0.0 0.9 0.00 0.00 0.00 91 1018.8
20260831003846 73 233 0.0 0.0 0.00 0.00 0.00 91 1018.7
20260831003338 73 233 0.0 0.0 0.00 0.00 0.00 90 1018.6
20260831003051 73 233 0.0 0.0 0.00 0.00 0.00 90 1017.4
20260831002849 73 233 0.0 0.0 0.00 0.00 0.00 90 1018.5
20260831002341 74 233 0.0 0.0 0.00 0.00 0.00 90 1018.5
20260831001854 74 234 0.0 0.0 0.00 0.00 0.00 90 1018.4
20260831001548 73 234 0.0 0.0 0.00 0.00 0.00 90 1017.3
20260831001348 74 234 0.0 0.0 0.00 0.00 0.00 89 1018.4
20260831000839 74 234 0.0 0.0 0.00 0.00 0.00 89 1018.3
20260831000355 74 234 0.0 0.0 0.00 0.00 0.00 89 1018.1
20260831000056 74 234 0.0 0.0 0.00 0.00 0.00 88 1017.0
20260830235842 74 234 0.0 0.0 0.00 0.00 0.00 88 1018.1
20260830235415 75 234 0.0 0.0 0.00 0.00 0.00 88 1018.0
20260830234846 75 234 0.0 0.0 0.00 0.00 0.00 88 1017.9
20260830234546 75 234 0.0 0.0 0.00 0.00 0.00 88 1016.7
20260830234340 75 234 0.0 0.0 0.00 0.00 0.00 88 1017.8
20260830233853 76 234 0.0 0.0 0.00 0.00 0.00 88 1017.7
20260830233346 76 234 0.0 0.0 0.00 0.00 0.00 87 1017.8
20260830233037 75 234 0.0 0.0 0.00 0.00 0.00 86 1016.7
20260830232836 76 234 0.0 0.0 0.00 0.00 0.00 86 1017.9
20260830232350 76 234 0.0 0.0 0.00 0.00 0.00 86 1017.9
20260830231843 77 234 0.0 0.0 0.00 0.00 0.00 85 1017.9
20260830231537 76 234 0.0 0.0 0.00 0.00 0.00 85 1016.8
20260830231337 77 234 0.0 0.0 0.00 0.00 0.00 84 1017.9
20260830230850 77 234 0.0 0.0 0.00 0.00 0.00 84 1018.0
20260830230345 77 234 0.0 0.0 0.00 0.00 0.00 83 1018.1
20260830230057 77 234 0.0 0.0 0.00 0.00 0.00 83 1016.9
20260830225851 78 234 0.0 0.0 0.00 0.00 0.00 83 1018.1
20260830225344 78 234 0.0 0.9 0.00 0.00 0.00 83 1018.0
20260830224858 78 234 0.0 0.9 0.00 0.00 0.00 82 1018.0
20260830224552 78 234 0.0 0.9 0.00 0.00 0.00 81 1016.9
20260830224349 78 234 0.0 0.9 0.00 0.00 0.00 80 1018.0
20260830223340 79 234 0.0 0.9 0.00 0.00 0.00 79 1018.1
20260830223102 79 234 0.0 3.5 0.00 0.00 0.00 80 1017.0
20260830222853 80 234 0.0 3.5 0.00 0.00 0.00 79 1018.1
20260830222345 81 234 1.7 3.5 0.00 0.00 0.00 73 1018.1
20260830221838 80 231 0.9 3.5 0.00 0.00 0.00 73 1018.1
20260830221607 80 194 0.0 1.7 0.00 0.00 0.00 78 1017.0
20260830221350 80 194 0.0 1.7 0.00 0.00 0.00 78 1018.1
20260830220843 80 194 0.9 1.7 0.00 0.00 0.00 75 1018.1
20260830220356 81 192 0.9 2.6 0.00 0.00 0.00 72 1018.0
20260830220047 81 192 0.9 2.6 0.00 0.00 0.00 71 1016.9
20260830215846 81 294 0.9 1.7 0.00 0.00 0.00 76 1018.0
20260830215339 81 208 0.0 2.6 0.00 0.00 0.00 75 1018.0
20260830214852 82 242 0.9 2.6 0.00 0.00 0.00 72 1018.1
20260830214545 81 160 0.9 2.6 0.00 0.00 0.00 72 1016.9
20260830214345 82 204 0.0 1.7 0.00 0.00 0.00 77 1018.0
20260830213857 82 204 0.0 2.6 0.00 0.00 0.00 72 1018.0
20260830213349 82 204 0.9 2.6 0.00 0.00 0.00 72 1018.0
20260830213003 81 190 0.0 3.5 0.00 0.00 0.00 75 1016.9
20260830212902 82 190 0.9 3.5 0.00 0.00 0.00 73 1018.0
20260830212354 82 211 0.9 3.5 0.00 0.00 0.00 74 1018.0
20260830211906 81 159 0.0 0.9 0.00 0.00 0.00 72 1017.9
20260830211559 80 159 0.0 0.9 0.00 0.00 0.00 73 1016.8
20260830211358 80 159 0.0 0.9 0.00 0.00 0.00 74 1017.8
20260830210850 80 159 0.0 0.9 0.00 0.00 0.00 75 1017.7
20260830210343 81 159 0.0 0.9 0.00 0.00 0.00 74 1017.7
20260830210053 81 159 0.0 0.9 0.00 0.00 0.00 73 1016.7
20260830205851 81 159 0.0 0.0 0.00 0.00 0.00 72 1017.8
20260830205402 81 159 0.0 0.0 0.00 0.00 0.00 71 1017.9
20260830204853 82 159 0.0 0.9 0.00 0.00 0.00 70 1017.8
20260830204546 82 159 0.0 1.7 0.00 0.00 0.00 68 1016.8
20260830204346 83 159 0.0 1.7 0.00 0.00 0.00 68 1017.9